Private Wetterstation Wechselburg
Wetterdaten: Donnerstag, 08.07.2010
Datum Zeit Temp. +2m Bodentemp. Temp.+5cm Temp. Wind Windchill X Diff Temp. Feuchte +2m Feuchte +5cm Sonnenschein Luftdruck Regen Wind Richtung Richtung Sonnenschein UV Taupunkt Windchill Windben
08.07.2010 00:00 16,8 C 20,1 C 14,0 C 15,2 C 12,0 C 0,0 C 74 % 86 % 0 % 1021,9 hPa 0,0 l/m 0,0 km/h (0 Bft) SW 225 0 min 0,1 UV-I 12,1 C 12,0 C 0,0 km/h (0 Bft)
08.07.2010 00:07 16,8 C 20,0 C 14,0 C 15,2 C 11,9 C 0,0 C 75 % 87 % 0 % 1021,9 hPa 0,0 l/m 0,0 km/h (0 Bft) N 0 0 min 0,1 UV-I 12,3 C 11,9 C 0,0 km/h (0 Bft)
08.07.2010 00:10 16,8 C 20,0 C 14,0 C 15,2 C 11,9 C 0,0 C 75 % 87 % 0 % 1021,9 hPa 0,0 l/m 0,0 km/h (0 Bft) W-SW 247 0 min 0,1 UV-I 12,3 C 11,9 C 0,0 km/h (0 Bft)
08.07.2010 00:15 16,7 C 20,0 C 13,9 C 15,0 C 11,7 C 0,0 C 75 % 86 % 0 % 1021,9 hPa 0,0 l/m 0,0 km/h (0 Bft) W-SW 247 0 min 0,1 UV-I 12,2 C 11,7 C 0,0 km/h (0 Bft)
08.07.2010 00:20 16,7 C 20,0 C 13,9 C 15,0 C 11,7 C 0,0 C 75 % 86 % 0 % 1021,8 hPa 0,0 l/m 0,0 km/h (0 Bft) W-SW 247 0 min 0,4 UV-I 12,2 C 11,7 C 0,0 km/h (0 Bft)
08.07.2010 00:25 16,5 C 20,0 C 13,7 C 14,9 C 11,7 C 0,0 C 75 % 86 % 0 % 1021,8 hPa 0,0 l/m 0,0 km/h (0 Bft) W-SW 247 0 min 0,4 UV-I 12,1 C 11,7 C 0,0 km/h (0 Bft)
08.07.2010 00:30 16,4 C 20,0 C 13,6 C 14,8 C 11,5 C 0,0 C 75 % 86 % 0 % 1021,8 hPa 0,0 l/m 0,0 km/h (0 Bft) W-SW 247 0 min 0,4 UV-I 12,0 C 11,5 C 0,0 km/h (0 Bft)
08.07.2010 00:35 16,4 C 20,0 C 13,6 C 14,7 C 11,4 C 0,0 C 76 % 87 % 0 % 1021,8 hPa 0,0 l/m 0,0 km/h (0 Bft) W-SW 247 0 min 0,4 UV-I 12,2 C 11,4 C 0,0 km/h (0 Bft)
08.07.2010 00:40 16,3 C 19,9 C 13,6 C 14,7 C 11,4 C 0,0 C 77 % 87 % 0 % 1021,8 hPa 0,0 l/m 0,0 km/h (0 Bft) W-SW 247 0 min 0,3 UV-I 12,3 C 11,4 C 0,0 km/h (0 Bft)
08.07.2010 00:45 16,3 C 19,9 C 13,5 C 14,7 C 11,4 C 0,0 C 76 % 87 % 0 % 1021,8 hPa 0,0 l/m 0,0 km/h (0 Bft) W-SW 247 0 min 0,3 UV-I 12,1 C 11,4 C 0,0 km/h (0 Bft)
08.07.2010 00:50 16,1 C 20,0 C 13,2 C 14,5 C 11,4 C 0,0 C 76 % 87 % 0 % 1021,8 hPa 0,0 l/m 0,0 km/h (0 Bft) W-SW 247 0 min 0,6 UV-I 11,9 C 11,4 C 0,0 km/h (0 Bft)
08.07.2010 00:55 15,9 C 20,0 C 13,2 C 14,4 C 11,4 C 0,0 C 76 % 87 % 0 % 1021,8 hPa 0,0 l/m 0,0 km/h (0 Bft) W-SW 247 0 min 0,6 UV-I 11,7 C 11,4 C 0,0 km/h (0 Bft)
08.07.2010 01:00 16,0 C 19,9 C 13,2 C 14,4 C 11,3 C 0,0 C 77 % 88 % 0 % 1021,9 hPa 0,0 l/m 0,2 km/h (0 Bft) W-SW 247 0 min 0,2 UV-I 12,0 C 11,3 C 0,0 km/h (0 Bft)
08.07.2010 01:06 15,8 C 20,0 C 13,1 C 14,3 C 11,2 C 0,0 C 76 % 88 % 0 % 1021,9 hPa 0,0 l/m 0,0 km/h (0 Bft) N 0 0 min 0,2 UV-I 11,6 C 11,2 C 0,0 km/h (0 Bft)
08.07.2010 01:10 15,8 C 20,0 C 13,1 C 14,3 C 11,2 C 0,0 C 76 % 88 % 0 % 1021,9 hPa 0,0 l/m 0,0 km/h (0 Bft) W-SW 247 0 min 0,2 UV-I 11,6 C 11,2 C 0,0 km/h (0 Bft)
08.07.2010 01:15 15,6 C 19,9 C 13,1 C 14,1 C 11,2 C 0,0 C 77 % 88 % 0 % 1021,9 hPa 0,0 l/m 0,0 km/h (0 Bft) W-SW 247 0 min 0,2 UV-I 11,6 C 11,2 C 0,0 km/h (0 Bft)
08.07.2010 01:20 15,6 C 19,9 C 13,1 C 14,1 C 11,1 C 0,0 C 77 % 88 % 0 % 1021,8 hPa 0,0 l/m 0,0 km/h (0 Bft) W-SW 247 0 min 0,1 UV-I 11,6 C 11,1 C 0,0 km/h (0 Bft)
08.07.2010 01:25 15,6 C 19,8 C 13,1 C 14,1 C 11,0 C 0,0 C 78 % 88 % 0 % 1021,8 hPa 0,0 l/m 0,0 km/h (0 Bft) W-SW 247 0 min 0,1 UV-I 11,8 C 11,0 C 0,0 km/h (0 Bft)
08.07.2010 01:30 15,6 C 19,8 C 13,0 C 14,1 C 11,0 C 0,0 C 78 % 89 % 0 % 1021,8 hPa 0,0 l/m 0,0 km/h (0 Bft) W-SW 247 0 min 0,1 UV-I 11,8 C 11,0 C 0,0 km/h (0 Bft)
08.07.2010 01:35 15,6 C 19,8 C 13,1 C 14,1 C 11,0 C 0,0 C 78 % 89 % 0 % 1021,8 hPa 0,0 l/m 0,0 km/h (0 Bft) W-SW 247 0 min 0,1 UV-I 11,8 C 11,0 C 0,0 km/h (0 Bft)
08.07.2010 01:40 15,4 C 20,0 C 12,9 C 13,9 C 11,0 C 0,0 C 77 % 88 % 0 % 1021,6 hPa 0,0 l/m 0,0 km/h (0 Bft) W-SW 247 0 min 0,0 UV-I 11,4 C 11,0 C 0,0 km/h (0 Bft)
08.07.2010 01:45 15,3 C 20,0 C 12,8 C 13,8 C 10,9 C 0,0 C 77 % 88 % 0 % 1021,6 hPa 0,0 l/m 0,0 km/h (0 Bft) W-SW 247 0 min 0,0 UV-I 11,3 C 10,9 C 0,0 km/h (0 Bft)
08.07.2010 01:50 15,0 C 20,0 C 12,7 C 13,6 C 10,9 C 0,0 C 78 % 88 % 0 % 1021,6 hPa 0,0 l/m 0,0 km/h (0 Bft) W-SW 247 0 min 0,0 UV-I 11,2 C 10,9 C 0,0 km/h (0 Bft)
08.07.2010 01:55 14,9 C 20,0 C 12,6 C 13,6 C 11,0 C 0,0 C 79 % 89 % 0 % 1021,6 hPa 0,0 l/m 0,0 km/h (0 Bft) W-SW 247 0 min 0,0 UV-I 11,3 C 11,0 C 0,0 km/h (0 Bft)
08.07.2010 02:00 15,1 C 19,9 C 12,7 C 13,7 C 10,9 C 0,0 C 80 % 89 % 0 % 1021,5 hPa 0,0 l/m 0,0 km/h (0 Bft) SW 225 0 min 0,0 UV-I 11,7 C 10,9 C 0,0 km/h (0 Bft)
08.07.2010 02:06 15,1 C 19,8 C 12,5 C 13,7 C 10,8 C 0,0 C 78 % 89 % 0 % 1021,5 hPa 0,0 l/m 0,0 km/h (0 Bft) N 0 0 min 0,0 UV-I 11,3 C 10,8 C 0,0 km/h (0 Bft)
08.07.2010 02:10 15,1 C 19,8 C 12,5 C 13,7 C 10,8 C 0,0 C 78 % 89 % 0 % 1021,5 hPa 0,0 l/m 0,0 km/h (0 Bft) SW 225 0 min 0,0 UV-I 11,3 C 10,8 C 0,0 km/h (0 Bft)
08.07.2010 02:15 15,0 C 19,9 C 12,4 C 13,5 C 10,6 C 0,0 C 78 % 89 % 0 % 1021,5 hPa 0,0 l/m 0,0 km/h (0 Bft) SW 225 0 min 0,0 UV-I 11,2 C 10,6 C 0,0 km/h (0 Bft)
08.07.2010 02:20 14,5 C 19,9 C 12,3 C 13,2 C 10,7 C 0,0 C 79 % 89 % 0 % 1021,5 hPa 0,0 l/m 0,0 km/h (0 Bft) SW 225 0 min 0,0 UV-I 10,9 C 10,7 C 0,0 km/h (0 Bft)
08.07.2010 02:25 14,4 C 19,8 C 12,2 C 13,2 C 10,8 C 0,0 C 80 % 89 % 0 % 1021,5 hPa 0,0 l/m 0,0 km/h (0 Bft) SW 225 0 min 0,0 UV-I 11,0 C 10,8 C 0,0 km/h (0 Bft)
08.07.2010 02:30 14,7 C 19,8 C 12,4 C 13,4 C 10,7 C 0,0 C 80 % 90 % 0 % 1021,5 hPa 0,0 l/m 0,0 km/h (0 Bft) SW 225 0 min 0,0 UV-I 11,3 C 10,7 C 0,0 km/h (0 Bft)
08.07.2010 02:35 14,7 C 19,8 C 12,3 C 13,3 C 10,6 C 0,0 C 79 % 89 % 0 % 1021,5 hPa 0,0 l/m 0,0 km/h (0 Bft) SW 225 0 min 0,0 UV-I 11,1 C 10,6 C 0,0 km/h (0 Bft)
08.07.2010 02:40 14,6 C 19,8 C 12,3 C 13,3 C 10,6 C 0,0 C 80 % 90 % 0 % 1021,4 hPa 0,0 l/m 0,0 km/h (0 Bft) SW 225 0 min 0,0 UV-I 11,2 C 10,6 C 0,0 km/h (0 Bft)
08.07.2010 02:45 14,6 C 19,7 C 12,2 C 13,3 C 10,6 C 0,0 C 80 % 90 % 0 % 1021,4 hPa 0,0 l/m 0,0 km/h (0 Bft) SW 225 0 min 0,0 UV-I 11,2 C 10,6 C 0,0 km/h (0 Bft)
08.07.2010 02:50 14,5 C 19,8 C 12,3 C 13,2 C 10,5 C 0,0 C 79 % 89 % 0 % 1021,4 hPa 0,0 l/m 0,0 km/h (0 Bft) SW 225 0 min 0,0 UV-I 10,9 C 10,5 C 0,0 km/h (0 Bft)
08.07.2010 02:55 14,4 C 19,8 C 12,1 C 13,1 C 10,6 C 0,0 C 79 % 89 % 0 % 1021,4 hPa 0,0 l/m 0,0 km/h (0 Bft) SW 225 0 min 0,0 UV-I 10,8 C 10,6 C 0,0 km/h (0 Bft)
08.07.2010 03:00 14,3 C 19,8 C 12,1 C 13,1 C 10,6 C 0,0 C 80 % 90 % 0 % 1021,4 hPa 0,0 l/m 0,0 km/h (0 Bft) SW 225 0 min 0,0 UV-I 10,9 C 10,6 C 0,0 km/h (0 Bft)
08.07.2010 03:06 14,4 C 19,7 C 12,3 C 13,1 C 10,6 C 0,0 C 81 % 90 % 0 % 1021,4 hPa 0,0 l/m 0,0 km/h (0 Bft) N 0 0 min 0,0 UV-I 11,2 C 10,6 C 0,0 km/h (0 Bft)
08.07.2010 03:10 14,4 C 19,7 C 12,3 C 13,1 C 10,6 C 0,0 C 81 % 90 % 0 % 1021,4 hPa 0,0 l/m 0,0 km/h (0 Bft) SW 225 0 min 0,0 UV-I 11,2 C 10,6 C 0,0 km/h (0 Bft)
08.07.2010 03:15 14,5 C 19,7 C 12,3 C 13,2 C 10,6 C 0,0 C 80 % 90 % 0 % 1021,4 hPa 0,0 l/m 0,0 km/h (0 Bft) SW 225 0 min 0,0 UV-I 11,1 C 10,6 C 0,0 km/h (0 Bft)
08.07.2010 03:20 14,5 C 19,7 C 12,3 C 13,2 C 10,5 C 0,0 C 80 % 90 % 0 % 1021,2 hPa 0,0 l/m 0,0 km/h (0 Bft) SW 225 0 min 0,0 UV-I 11,1 C 10,5 C 0,0 km/h (0 Bft)
08.07.2010 03:25 14,3 C 19,7 C 12,3 C 13,1 C 10,6 C 0,0 C 80 % 90 % 0 % 1021,2 hPa 0,0 l/m 0,0 km/h (0 Bft) SW 225 0 min 0,0 UV-I 10,9 C 10,6 C 0,0 km/h (0 Bft)
08.07.2010 03:30 14,4 C 19,6 C 12,3 C 13,1 C 10,6 C 0,0 C 81 % 90 % 0 % 1021,2 hPa 0,0 l/m 0,2 km/h (0 Bft) SW 225 0 min 0,0 UV-I 11,2 C 10,6 C 1,8 km/h (1 Bft)
08.07.2010 03:35 14,5 C 19,6 C 12,3 C 13,2 C 10,6 C 0,0 C 81 % 90 % 0 % 1021,2 hPa 0,0 l/m 0,3 km/h (0 Bft) SW 225 0 min 0,0 UV-I 11,3 C 10,6 C 2,1 km/h (1 Bft)
08.07.2010 03:40 14,4 C 19,6 C 12,2 C 13,1 C 10,6 C 0,0 C 80 % 90 % 0 % 1021,1 hPa 0,0 l/m 0,3 km/h (0 Bft) SW 225 0 min 0,0 UV-I 11,0 C 10,6 C 0,0 km/h (0 Bft)
08.07.2010 03:45 14,3 C 19,6 C 12,1 C 13,1 C 10,6 C 0,0 C 80 % 90 % 0 % 1021,1 hPa 0,0 l/m 0,3 km/h (0 Bft) SW 225 0 min 0,0 UV-I 10,9 C 10,6 C 0,0 km/h (0 Bft)
08.07.2010 03:50 14,1 C 19,6 C 12,0 C 12,9 C 10,6 C 0,0 C 80 % 90 % 0 % 1021,1 hPa 0,0 l/m 0,0 km/h (0 Bft) SW 225 0 min 0,0 UV-I 10,7 C 10,6 C 0,0 km/h (0 Bft)
08.07.2010 03:55 14,1 C 19,6 C 12,0 C 13,0 C 10,8 C 0,0 C 80 % 90 % 0 % 1021,1 hPa 0,0 l/m 0,0 km/h (0 Bft) SW 225 0 min 0,0 UV-I 10,7 C 10,8 C 0,0 km/h (0 Bft)
08.07.2010 04:00 14,0 C 19,5 C 12,1 C 13,0 C 10,9 C 0,0 C 81 % 90 % 0 % 1021,2 hPa 0,0 l/m 0,0 km/h (0 Bft) SW 225 0 min 0,0 UV-I 10,8 C 10,9 C 0,0 km/h (0 Bft)
08.07.2010 04:06 14,3 C 19,5 C 12,3 C 13,2 C 10,9 C 0,0 C 81 % 90 % 0 % 1021,2 hPa 0,0 l/m 0,0 km/h (0 Bft) N 0 0 min 0,1 UV-I 11,1 C 10,9 C 0,0 km/h (0 Bft)
08.07.2010 04:10 14,3 C 19,5 C 12,3 C 13,2 C 10,9 C 0,0 C 81 % 90 % 0 % 1021,2 hPa 0,0 l/m 0,0 km/h (0 Bft) SW 225 0 min 0,1 UV-I 11,1 C 10,9 C 0,0 km/h (0 Bft)
08.07.2010 04:15 14,2 C 19,5 C 12,3 C 13,1 C 10,9 C 0,0 C 81 % 90 % 0 % 1021,2 hPa 0,0 l/m 0,0 km/h (0 Bft) SW 225 0 min 0,1 UV-I 11,0 C 10,9 C 0,0 km/h (0 Bft)
08.07.2010 04:20 14,1 C 19,5 C 12,3 C 13,0 C 10,9 C 0,0 C 81 % 90 % 0 % 1021,0 hPa 0,0 l/m 0,0 km/h (0 Bft) SW 225 0 min 0,0 UV-I 10,9 C 10,9 C 0,0 km/h (0 Bft)
08.07.2010 04:25 14,0 C 19,5 C 12,1 C 13,0 C 10,9 C 0,0 C 81 % 90 % 0 % 1021,0 hPa 0,0 l/m 0,0 km/h (0 Bft) SW 225 0 min 0,0 UV-I 10,8 C 10,9 C 0,0 km/h (0 Bft)
08.07.2010 04:30 13,9 C 19,5 C 12,1 C 12,9 C 11,0 C 0,0 C 82 % 90 % 0 % 1021,0 hPa 0,0 l/m 0,0 km/h (0 Bft) SW 225 0 min 0,1 UV-I 10,9 C 11,0 C 0,0 km/h (0 Bft)
08.07.2010 04:35 13,9 C 19,5 C 12,2 C 12,9 C 11,0 C 0,0 C 83 % 91 % 0 % 1021,0 hPa 0,0 l/m 0,0 km/h (0 Bft) SW 225 0 min 0,1 UV-I 11,1 C 11,0 C 0,0 km/h (0 Bft)
08.07.2010 04:40 14,0 C 19,4 C 12,3 C 13,0 C 10,9 C 0,0 C 83 % 91 % 0 % 1021,1 hPa 0,0 l/m 0,0 km/h (0 Bft) SW 225 0 min 0,0 UV-I 11,2 C 10,9 C 0,0 km/h (0 Bft)
08.07.2010 04:45 14,0 C 19,4 C 12,2 C 12,9 C 10,7 C 0,0 C 82 % 90 % 0 % 1021,1 hPa 0,0 l/m 0,0 km/h (0 Bft) SW 225 0 min 0,0 UV-I 11,0 C 10,7 C 0,0 km/h (0 Bft)
08.07.2010 04:50 14,0 C 19,3 C 12,3 C 12,8 C 10,5 C 0,0 C 82 % 90 % 0 % 1021,1 hPa 0,0 l/m 0,0 km/h (0 Bft) SW 225 0 min 0,0 UV-I 11,0 C 10,5 C 0,0 km/h (0 Bft)
08.07.2010 04:55 14,0 C 19,3 C 12,1 C 12,8 C 10,4 C 0,0 C 82 % 90 % 0 % 1021,1 hPa 0,0 l/m 0,0 km/h (0 Bft) SW 225 0 min 0,0 UV-I 11,0 C 10,4 C 0,0 km/h (0 Bft)
08.07.2010 05:00 14,1 C 19,3 C 12,1 C 12,9 C 10,4 C 0,0 C 82 % 90 % 0 % 1020,9 hPa 0,0 l/m 0,0 km/h (0 Bft) SW 225 0 min 0,0 UV-I 11,1 C 10,4 C 0,0 km/h (0 Bft)
08.07.2010 05:06 13,9 C 19,3 C 11,8 C 12,7 C 10,2 C 0,0 C 81 % 90 % 0 % 1020,9 hPa 0,0 l/m 0,0 km/h (0 Bft) N 0 0 min 0,0 UV-I 10,7 C 10,2 C 0,0 km/h (0 Bft)
08.07.2010 05:10 13,9 C 19,3 C 11,8 C 12,7 C 10,2 C 0,0 C 81 % 90 % 0 % 1020,9 hPa 0,0 l/m 0,0 km/h (0 Bft) SW 225 0 min 0,0 UV-I 10,7 C 10,2 C 0,0 km/h (0 Bft)
08.07.2010 05:15 13,9 C 19,3 C 11,8 C 12,7 C 10,2 C 0,0 C 81 % 90 % 0 % 1020,9 hPa 0,0 l/m 0,0 km/h (0 Bft) SW 225 0 min 0,0 UV-I 10,7 C 10,2 C 0,0 km/h (0 Bft)
08.07.2010 05:20 13,9 C 19,3 C 11,9 C 12,7 C 10,2 C 0,0 C 81 % 90 % 0 % 1021,1 hPa 0,0 l/m 0,0 km/h (0 Bft) SW 225 0 min 0,0 UV-I 10,7 C 10,2 C 0,0 km/h (0 Bft)
08.07.2010 05:25 13,7 C 19,3 C 11,8 C 12,5 C 10,2 C 0,0 C 81 % 90 % 0 % 1021,1 hPa 0,0 l/m 0,0 km/h (0 Bft) SW 225 0 min 0,0 UV-I 10,5 C 10,2 C 0,0 km/h (0 Bft)
08.07.2010 05:30 13,9 C 19,3 C 11,7 C 12,7 C 10,2 C 0,0 C 82 % 90 % 0 % 1021,1 hPa 0,0 l/m 0,0 km/h (0 Bft) SW 225 0 min 0,0 UV-I 10,9 C 10,2 C 0,0 km/h (0 Bft)
08.07.2010 05:35 13,9 C 19,3 C 11,9 C 12,7 C 10,3 C 0,0 C 82 % 90 % 0 % 1021,1 hPa 0,0 l/m 0,0 km/h (0 Bft) SW 225 0 min 0,0 UV-I 10,9 C 10,3 C 0,0 km/h (0 Bft)
08.07.2010 05:40 13,9 C 19,3 C 11,9 C 12,7 C 10,4 C 0,0 C 81 % 90 % 0 % 1021,2 hPa 0,0 l/m 0,0 km/h (0 Bft) SW 225 0 min 0,1 UV-I 10,7 C 10,4 C 0,0 km/h (0 Bft)
08.07.2010 05:45 13,7 C 19,3 C 11,8 C 12,6 C 10,5 C 0,0 C 82 % 90 % 0 % 1021,2 hPa 0,0 l/m 0,0 km/h (0 Bft) SW 225 0 min 0,1 UV-I 10,7 C 10,5 C 0,0 km/h (0 Bft)
08.07.2010 05:50 13,8 C 19,2 C 11,9 C 12,7 C 10,6 C 0,0 C 82 % 91 % 0 % 1021,2 hPa 0,0 l/m 0,0 km/h (0 Bft) SW 225 0 min 0,1 UV-I 10,8 C 10,6 C 0,0 km/h (0 Bft)
08.07.2010 05:55 13,9 C 19,2 C 12,0 C 12,8 C 10,6 C 0,0 C 82 % 91 % 0 % 1021,2 hPa 0,0 l/m 0,0 km/h (0 Bft) SW 225 0 min 0,1 UV-I 10,9 C 10,6 C 0,0 km/h (0 Bft)
08.07.2010 06:00 13,9 C 19,3 C 12,0 C 12,9 C 10,8 C 0,0 C 82 % 90 % 0 % 1020,8 hPa 0,0 l/m 0,0 km/h (0 Bft) SW 225 0 min 0,0 UV-I 10,9 C 10,8 C 0,0 km/h (0 Bft)
08.07.2010 06:06 14,1 C 19,2 C 12,1 C 13,1 C 11,0 C 0,0 C 83 % 91 % 0 % 1020,8 hPa 0,0 l/m 0,0 km/h (0 Bft) N 0 0 min 0,0 UV-I 11,3 C 11,0 C 0,0 km/h (0 Bft)
08.07.2010 06:10 14,1 C 19,2 C 12,1 C 13,1 C 11,0 C 0,0 C 83 % 91 % 0 % 1020,8 hPa 0,0 l/m 0,0 km/h (0 Bft) SW 225 0 min 0,0 UV-I 11,3 C 11,0 C 0,0 km/h (0 Bft)
08.07.2010 06:15 14,2 C 19,2 C 12,2 C 13,2 C 11,1 C 0,0 C 82 % 91 % 0 % 1020,8 hPa 0,0 l/m 0,0 km/h (0 Bft) SW 225 0 min 0,0 UV-I 11,2 C 11,1 C 0,0 km/h (0 Bft)
08.07.2010 06:20 14,4 C 19,1 C 12,3 C 13,3 C 11,0 C 0,0 C 82 % 91 % 0 % 1021,1 hPa 0,0 l/m 0,0 km/h (0 Bft) SW 225 0 min 0,1 UV-I 11,4 C 11,0 C 0,0 km/h (0 Bft)
08.07.2010 06:25 14,3 C 19,1 C 12,3 C 13,2 C 11,0 C 0,0 C 82 % 91 % 0 % 1021,1 hPa 0,0 l/m 0,0 km/h (0 Bft) SW 225 0 min 0,1 UV-I 11,3 C 11,0 C 0,0 km/h (0 Bft)
08.07.2010 06:30 14,8 C 19,1 C 12,3 C 13,6 C 11,2 C 0,0 C 81 % 91 % 0 % 1021,1 hPa 0,0 l/m 0,0 km/h (0 Bft) SW 225 0 min 0,0 UV-I 11,6 C 11,2 C 0,0 km/h (0 Bft)
08.07.2010 06:35 15,4 C 19,1 C 12,4 C 14,1 C 11,4 C 0,0 C 80 % 91 % 0 % 1021,1 hPa 0,0 l/m 0,0 km/h (0 Bft) SW 225 0 min 0,0 UV-I 12,0 C 11,4 C 0,0 km/h (0 Bft)
08.07.2010 06:40 15,2 C 19,0 C 12,4 C 14,0 C 11,6 C 0,0 C 80 % 91 % 0 % 1020,9 hPa 0,0 l/m 0,0 km/h (0 Bft) SW 225 0 min 0,0 UV-I 11,8 C 11,6 C 0,0 km/h (0 Bft)
08.07.2010 06:45 15,2 C 19,0 C 12,4 C 14,1 C 11,9 C 0,0 C 80 % 91 % 0 % 1020,9 hPa 0,0 l/m 0,0 km/h (0 Bft) SW 225 0 min 0,0 UV-I 11,8 C 11,9 C 0,0 km/h (0 Bft)
08.07.2010 06:50 15,5 C 19,0 C 12,4 C 14,4 C 12,3 C 0,0 C 80 % 91 % 0 % 1020,9 hPa 0,0 l/m 0,0 km/h (0 Bft) SW 225 0 min 0,1 UV-I 12,1 C 12,3 C 0,0 km/h (0 Bft)
08.07.2010 06:55 15,8 C 18,9 C 12,4 C 14,8 C 12,7 C 0,0 C 79 % 91 % 0 % 1020,9 hPa 0,0 l/m 0,0 km/h (0 Bft) SW 225 0 min 0,1 UV-I 12,2 C 12,7 C 0,0 km/h (0 Bft)
08.07.2010 07:00 16,2 C 18,9 C 12,4 C 15,4 C 13,7 C 0,0 C 78 % 91 % 0 % 1020,9 hPa 0,0 l/m 0,5 km/h (0 Bft) W-SW 247 0 min 0,1 UV-I 12,4 C 13,7 C 0,0 km/h (0 Bft)
08.07.2010 07:06 17,1 C 18,9 C 12,4 C 16,3 C 14,6 C 0,0 C 77 % 91 % 0 % 1020,9 hPa 0,0 l/m 0,5 km/h (0 Bft) N 0 0 min 0,0 UV-I 13,0 C 14,6 C 1,8 km/h (1 Bft)
08.07.2010 07:10 17,1 C 18,9 C 12,4 C 16,3 C 14,6 C 0,0 C 77 % 91 % 0 % 1020,9 hPa 0,0 l/m 0,5 km/h (0 Bft) W-SW 247 0 min 0,0 UV-I 13,0 C 14,6 C 1,8 km/h (1 Bft)
08.07.2010 07:15 17,9 C 18,8 C 12,4 C 17,4 C 16,4 C 0,0 C 76 % 91 % 0 % 1020,9 hPa 0,0 l/m 0,6 km/h (0 Bft) SW 225 0 min 0,0 UV-I 13,6 C 16,4 C 1,6 km/h (1 Bft)
08.07.2010 07:20 18,0 C 18,8 C 12,4 C 18,3 C 18,3 C 0,3 C 73 % 91 % 8 % 1020,6 hPa 0,0 l/m 0,3 km/h (0 Bft) SW 225 0 min 0,1 UV-I 13,1 C 18,3 C 1,6 km/h (1 Bft)
08.07.2010 07:25 17,8 C 18,8 C 12,4 C 17,8 C 17,7 C 0,0 C 73 % 91 % 0 % 1020,6 hPa 0,0 l/m 0,5 km/h (0 Bft) W-SW 247 0 min 0,1 UV-I 12,9 C 17,7 C 2,3 km/h (1 Bft)
08.07.2010 07:30 18,2 C 18,8 C 12,4 C 19,7 C 19,7 C 1,5 C 73 % 91 % 39 % 1020,6 hPa 0,0 l/m 1,1 km/h (1 Bft) W-SW 247 0 min 0,1 UV-I 13,3 C 19,7 C 2,1 km/h (1 Bft)
08.07.2010 07:35 18,3 C 18,7 C 12,4 C 21,0 C 21,0 C 2,7 C 74 % 91 % 71 % 1020,6 hPa 0,0 l/m 1,4 km/h (1 Bft) SW 225 0 min 0,1 UV-I 13,6 C 21,0 C 2,1 km/h (1 Bft)
08.07.2010 07:40 18,1 C 18,7 C 12,4 C 22,6 C 22,6 C 4,5 C 74 % 91 % 100 % 1020,8 hPa 0,0 l/m 1,8 km/h (1 Bft) SW 225 5 min 0,2 UV-I 13,4 C 22,6 C 3,9 km/h (1 Bft)
08.07.2010 07:45 18,0 C 18,7 C 12,4 C 22,5 C 22,5 C 4,5 C 74 % 91 % 100 % 1020,8 hPa 0,0 l/m 2,1 km/h (1 Bft) W-SW 247 5 min 0,2 UV-I 13,3 C 22,5 C 2,7 km/h (1 Bft)
08.07.2010 07:50 18,0 C 18,7 C 12,4 C 21,1 C 21,1 C 3,1 C 74 % 91 % 82 % 1020,8 hPa 0,0 l/m 1,9 km/h (1 Bft) W-SW 247 0 min 0,3 UV-I 13,3 C 21,1 C 0,0 km/h (0 Bft)
08.07.2010 07:55 18,0 C 18,7 C 12,4 C 22,1 C 22,1 C 4,1 C 74 % 91 % 100 % 1020,8 hPa 0,0 l/m 1,4 km/h (1 Bft) S-SO 157 5 min 0,3 UV-I 13,3 C 22,1 C 0,0 km/h (0 Bft)
08.07.2010 08:00 18,2 C 18,8 C 12,4 C 23,3 C 23,3 C 5,1 C 72 % 91 % 100 % 1020,8 hPa 0,0 l/m 0,8 km/h (0 Bft) S 180 5 min 0,3 UV-I 13,1 C 23,3 C 2,6 km/h (1 Bft)
08.07.2010 08:06 18,0 C 18,7 C 12,4 C 21,6 C 21,6 C 3,6 C 72 % 91 % 95 % 1020,8 hPa 0,0 l/m 0,3 km/h (0 Bft) N 0 6 min 0,4 UV-I 12,9 C 21,6 C 0,0 km/h (0 Bft)
08.07.2010 08:10 18,0 C 18,7 C 12,4 C 21,6 C 21,6 C 3,6 C 72 % 91 % 95 % 1020,8 hPa 0,0 l/m 0,3 km/h (0 Bft) W-SW 247 4 min 0,4 UV-I 12,9 C 21,6 C 0,0 km/h (0 Bft)
08.07.2010 08:15 18,1 C 18,7 C 12,4 C 21,6 C 21,6 C 3,5 C 72 % 91 % 92 % 1020,8 hPa 0,0 l/m 0,3 km/h (0 Bft) SW 225 5 min 0,4 UV-I 13,0 C 21,6 C 0,0 km/h (0 Bft)
08.07.2010 08:20 18,3 C 18,7 C 12,4 C 21,9 C 21,9 C 3,6 C 72 % 91 % 95 % 1021,1 hPa 0,0 l/m 0,2 km/h (0 Bft) SW 225 5 min 0,5 UV-I 13,2 C 21,9 C 1,6 km/h (1 Bft)
08.07.2010 08:25 18,2 C 18,7 C 12,4 C 22,4 C 22,4 C 4,2 C 73 % 91 % 100 % 1021,1 hPa 0,0 l/m 0,2 km/h (0 Bft) S-SW 202 5 min 0,5 UV-I 13,3 C 22,4 C 0,0 km/h (0 Bft)
08.07.2010 08:30 18,4 C 18,7 C 12,4 C 22,6 C 22,6 C 4,2 C 73 % 91 % 100 % 1021,1 hPa 0,0 l/m 1,0 km/h (0 Bft) W-SW 247 5 min 0,5 UV-I 13,5 C 22,6 C 3,9 km/h (1 Bft)
08.07.2010 08:35 18,6 C 18,7 C 12,4 C 23,5 C 23,5 C 4,9 C 72 % 91 % 100 % 1021,1 hPa 0,0 l/m 1,6 km/h (1 Bft) W-SW 247 5 min 0,5 UV-I 13,4 C 23,5 C 0,0 km/h (0 Bft)
08.07.2010 08:40 18,9 C 18,7 C 12,4 C 24,9 C 24,9 C 6,0 C 72 % 91 % 100 % 1021,2 hPa 0,0 l/m 1,9 km/h (1 Bft) NO 45 5 min 0,7 UV-I 13,7 C 24,9 C 2,1 km/h (1 Bft)
08.07.2010 08:45 18,9 C 18,7 C 12,4 C 25,0 C 25,0 C 6,1 C 72 % 91 % 100 % 1021,2 hPa 0,0 l/m 1,0 km/h (0 Bft) SW 225 5 min 0,7 UV-I 13,7 C 25,0 C 0,0 km/h (0 Bft)
08.07.2010 08:50 18,8 C 18,7 C 12,4 C 25,0 C 25,0 C 6,2 C 71 % 91 % 100 % 1021,2 hPa 0,0 l/m 1,4 km/h (1 Bft) W-SW 247 5 min 0,7 UV-I 13,4 C 25,0 C 4,7 km/h (1 Bft)
08.07.2010 08:55 18,8 C 18,7 C 12,4 C 24,2 C 24,2 C 5,4 C 71 % 91 % 100 % 1021,2 hPa 0,0 l/m 2,1 km/h (1 Bft) W-SW 247 5 min 0,7 UV-I 13,4 C 24,2 C 3,7 km/h (1 Bft)
08.07.2010 09:00 18,9 C 18,7 C 12,4 C 22,8 C 22,8 C 3,9 C 71 % 91 % 100 % 1021,2 hPa 0,0 l/m 1,8 km/h (1 Bft) W-SW 247 5 min 0,8 UV-I 13,5 C 22,8 C 0,0 km/h (0 Bft)
08.07.2010 09:06 19,1 C 18,7 C 12,4 C 24,9 C 24,9 C 5,8 C 71 % 91 % 100 % 1021,2 hPa 0,0 l/m 0,2 km/h (0 Bft) N 0 6 min 1,1 UV-I 13,7 C 24,9 C 0,0 km/h (0 Bft)
08.07.2010 09:10 19,1 C 18,7 C 12,4 C 24,9 C 24,9 C 5,8 C 71 % 91 % 100 % 1021,2 hPa 0,0 l/m 0,2 km/h (0 Bft) SW 225 4 min 1,1 UV-I 13,7 C 24,9 C 0,0 km/h (0 Bft)
08.07.2010 09:15 19,1 C 18,7 C 12,4 C 26,3 C 26,3 C 7,2 C 70 % 91 % 100 % 1021,2 hPa 0,0 l/m 0,3 km/h (0 Bft) SW 225 5 min 1,1 UV-I 13,5 C 26,3 C 1,8 km/h (1 Bft)
08.07.2010 09:20 19,3 C 18,7 C 12,4 C 27,6 C 27,6 C 8,3 C 70 % 91 % 100 % 1021,3 hPa 0,0 l/m 1,1 km/h (1 Bft) SW 225 5 min 1,3 UV-I 13,7 C 27,6 C 5,1 km/h (1 Bft)
08.07.2010 09:25 19,3 C 18,7 C 12,4 C 27,6 C 27,6 C 8,3 C 69 % 91 % 100 % 1021,3 hPa 0,0 l/m 1,9 km/h (1 Bft) O-NO 67 5 min 1,3 UV-I 13,5 C 27,6 C 2,9 km/h (1 Bft)
08.07.2010 09:30 19,5 C 18,6 C 12,4 C 27,9 C 27,9 C 8,4 C 69 % 91 % 100 % 1021,3 hPa 0,0 l/m 2,3 km/h (1 Bft) W-SW 247 5 min 1,4 UV-I 13,7 C 27,9 C 0,0 km/h (0 Bft)
08.07.2010 09:35 19,6 C 18,6 C 12,4 C 28,3 C 28,3 C 8,7 C 68 % 91 % 100 % 1021,3 hPa 0,0 l/m 1,8 km/h (1 Bft) S 180 5 min 1,4 UV-I 13,5 C 28,3 C 2,1 km/h (1 Bft)
08.07.2010 09:40 19,9 C 18,6 C 12,4 C 28,8 C 28,8 C 8,9 C 67 % 91 % 100 % 1021,0 hPa 0,0 l/m 1,6 km/h (1 Bft) SO 135 5 min 1,5 UV-I 13,6 C 28,8 C 1,6 km/h (1 Bft)
08.07.2010 09:45 20,0 C 18,6 C 12,4 C 29,0 C 29,0 C 9,0 C 67 % 91 % 100 % 1021,0 hPa 0,0 l/m 1,4 km/h (1 Bft) SW 225 5 min 1,5 UV-I 13,7 C 29,0 C 2,6 km/h (1 Bft)
08.07.2010 09:50 20,1 C 18,6 C 12,4 C 29,4 C 29,4 C 9,3 C 67 % 91 % 100 % 1021,0 hPa 0,0 l/m 1,6 km/h (1 Bft) S-SW 202 5 min 1,2 UV-I 13,8 C 29,4 C 7,6 km/h (2 Bft)
08.07.2010 09:55 20,3 C 18,6 C 12,4 C 29,2 C 29,2 C 8,9 C 65 % 91 % 100 % 1021,0 hPa 0,0 l/m 2,3 km/h (1 Bft) S-SW 202 5 min 1,2 UV-I 13,5 C 29,2 C 3,2 km/h (1 Bft)
08.07.2010 10:00 20,5 C 18,7 C 12,4 C 29,7 C 29,7 C 9,2 C 65 % 91 % 100 % 1020,9 hPa 0,0 l/m 2,3 km/h (1 Bft) W 270 5 min 1,1 UV-I 13,7 C 29,7 C 3,1 km/h (1 Bft)
08.07.2010 10:06 20,9 C 18,7 C 12,4 C 30,1 C 30,1 C 9,2 C 64 % 91 % 100 % 1020,9 hPa 0,0 l/m 1,6 km/h (1 Bft) N 0 6 min 1,2 UV-I 13,8 C 30,1 C 1,8 km/h (1 Bft)
08.07.2010 10:10 20,9 C 18,7 C 12,4 C 30,1 C 30,1 C 9,2 C 64 % 91 % 100 % 1020,9 hPa 0,0 l/m 1,6 km/h (1 Bft) S-SO 157 4 min 1,2 UV-I 13,8 C 30,1 C 1,8 km/h (1 Bft)
08.07.2010 10:15 21,0 C 18,7 C 12,4 C 29,9 C 29,9 C 8,9 C 63 % 91 % 100 % 1020,9 hPa 0,0 l/m 2,7 km/h (1 Bft) W-SW 247 5 min 1,2 UV-I 13,7 C 29,9 C 4,0 km/h (1 Bft)
08.07.2010 10:20 21,2 C 18,7 C 12,4 C 29,8 C 29,8 C 8,6 C 62 % 91 % 100 % 1021,1 hPa 0,0 l/m 2,7 km/h (1 Bft) S-SO 157 5 min 1,2 UV-I 13,6 C 29,8 C 2,4 km/h (1 Bft)
08.07.2010 10:25 21,3 C 18,7 C 12,4 C 30,1 C 30,1 C 8,8 C 61 % 91 % 100 % 1021,1 hPa 0,0 l/m 2,3 km/h (1 Bft) SW 225 5 min 1,2 UV-I 13,5 C 30,1 C 4,3 km/h (1 Bft)
08.07.2010 10:30 21,5 C 18,7 C 12,4 C 30,2 C 30,2 C 8,7 C 60 % 91 % 100 % 1021,1 hPa 0,0 l/m 2,4 km/h (1 Bft) S 180 5 min 2,2 UV-I 13,4 C 30,2 C 4,8 km/h (1 Bft)
08.07.2010 10:35 21,7 C 18,7 C 12,4 C 29,7 C 29,7 C 8,0 C 60 % 91 % 100 % 1021,1 hPa 0,0 l/m 3,2 km/h (1 Bft) W-SW 247 5 min 2,2 UV-I 13,6 C 29,7 C 2,1 km/h (1 Bft)
08.07.2010 10:40 21,7 C 18,6 C 12,4 C 29,3 C 29,3 C 7,6 C 58 % 91 % 100 % 1021,0 hPa 0,0 l/m 4,3 km/h (1 Bft) SW 225 5 min 2,4 UV-I 13,1 C 29,3 C 9,5 km/h (2 Bft)
08.07.2010 10:45 21,8 C 18,6 C 12,4 C 29,1 C 29,1 C 7,3 C 59 % 91 % 100 % 1021,0 hPa 0,0 l/m 4,3 km/h (1 Bft) W-SW 247 5 min 2,4 UV-I 13,4 C 29,1 C 2,6 km/h (1 Bft)
08.07.2010 10:50 22,1 C 18,7 C 12,4 C 29,4 C 29,4 C 7,3 C 57 % 91 % 100 % 1021,0 hPa 0,0 l/m 3,5 km/h (1 Bft) W-SW 247 5 min 2,6 UV-I 13,2 C 29,4 C 2,6 km/h (1 Bft)
08.07.2010 10:55 22,3 C 18,7 C 12,4 C 29,5 C 29,5 C 7,2 C 56 % 91 % 100 % 1021,0 hPa 0,0 l/m 2,6 km/h (1 Bft) O 90 5 min 2,6 UV-I 13,1 C 29,5 C 0,0 km/h (0 Bft)
08.07.2010 11:00 22,4 C 18,7 C 12,4 C 29,6 C 29,6 C 7,2 C 56 % 91 % 100 % 1021,1 hPa 0,0 l/m 3,2 km/h (1 Bft) S 180 5 min 2,7 UV-I 13,2 C 29,6 C 2,9 km/h (1 Bft)
08.07.2010 11:06 22,7 C 18,7 C 12,4 C 29,3 C 29,3 C 6,6 C 56 % 91 % 100 % 1021,1 hPa 0,0 l/m 4,2 km/h (1 Bft) N 0 6 min 2,9 UV-I 13,5 C 29,3 C 9,7 km/h (2 Bft)
08.07.2010 11:10 22,7 C 18,7 C 12,4 C 29,3 C 29,3 C 6,6 C 56 % 91 % 100 % 1021,1 hPa 0,0 l/m 4,2 km/h (1 Bft) SO 135 4 min 2,9 UV-I 13,5 C 29,3 C 2,3 km/h (1 Bft)
08.07.2010 11:15 22,8 C 18,7 C 12,4 C 29,3 C 29,3 C 6,5 C 55 % 91 % 100 % 1021,1 hPa 0,0 l/m 4,2 km/h (1 Bft) W-SW 247 5 min 2,9 UV-I 13,3 C 29,3 C 3,1 km/h (1 Bft)
08.07.2010 11:20 23,1 C 18,7 C 12,4 C 29,5 C 29,5 C 6,4 C 54 % 91 % 100 % 1020,9 hPa 0,0 l/m 2,9 km/h (1 Bft) S-SO 157 5 min 3,1 UV-I 13,3 C 29,5 C 4,8 km/h (1 Bft)
08.07.2010 11:25 23,3 C 18,7 C 12,4 C 29,7 C 29,7 C 6,4 C 52 % 91 % 100 % 1020,9 hPa 0,0 l/m 2,4 km/h (1 Bft) S-SW 202 5 min 3,1 UV-I 12,9 C 29,7 C 4,8 km/h (1 Bft)
08.07.2010 11:30 23,2 C 18,8 C 12,4 C 30,1 C 30,1 C 6,9 C 51 % 91 % 100 % 1020,9 hPa 0,0 l/m 2,7 km/h (1 Bft) SO 135 5 min 2,4 UV-I 12,5 C 30,1 C 7,4 km/h (2 Bft)
08.07.2010 11:35 23,4 C 18,8 C 12,4 C 30,2 C 30,2 C 6,8 C 51 % 91 % 100 % 1020,9 hPa 0,0 l/m 2,6 km/h (1 Bft) W-SW 247 5 min 2,4 UV-I 12,7 C 30,2 C 0,0 km/h (0 Bft)
08.07.2010 11:40 23,5 C 18,8 C 12,4 C 30,3 C 30,3 C 6,8 C 51 % 91 % 100 % 1021,1 hPa 0,0 l/m 3,5 km/h (1 Bft) SW 225 5 min 3,1 UV-I 12,8 C 30,3 C 12,1 km/h (2 Bft)
08.07.2010 11:45 23,5 C 18,8 C 12,4 C 29,8 C 29,8 C 6,3 C 50 % 91 % 100 % 1021,1 hPa 0,0 l/m 3,4 km/h (1 Bft) S-SW 202 5 min 3,1 UV-I 12,5 C 29,8 C 2,6 km/h (1 Bft)
08.07.2010 11:50 23,6 C 18,8 C 12,4 C 29,6 C 29,6 C 6,0 C 50 % 91 % 100 % 1021,1 hPa 0,0 l/m 3,5 km/h (1 Bft) S 180 5 min 3,9 UV-I 12,6 C 29,6 C 2,4 km/h (1 Bft)
08.07.2010 11:55 23,9 C 18,8 C 12,4 C 29,8 C 29,8 C 5,9 C 51 % 91 % 100 % 1021,1 hPa 0,0 l/m 3,1 km/h (1 Bft) NW 315 5 min 3,9 UV-I 13,1 C 29,8 C 0,0 km/h (0 Bft)
08.07.2010 12:00 24,0 C 18,8 C 12,4 C 30,2 C 30,2 C 6,2 C 49 % 91 % 100 % 1020,8 hPa 0,0 l/m 2,6 km/h (1 Bft) S 180 5 min 4,1 UV-I 12,6 C 30,2 C 2,9 km/h (1 Bft)
08.07.2010 12:06 24,1 C 18,8 C 12,4 C 30,2 C 30,2 C 6,1 C 48 % 91 % 100 % 1020,8 hPa 0,0 l/m 3,4 km/h (1 Bft) N 0 6 min 4,1 UV-I 12,4 C 30,2 C 3,2 km/h (1 Bft)
08.07.2010 12:10 24,1 C 18,8 C 12,4 C 30,2 C 30,2 C 6,1 C 48 % 91 % 100 % 1020,8 hPa 0,0 l/m 3,4 km/h (1 Bft) S 180 4 min 4,1 UV-I 12,4 C 30,2 C 3,2 km/h (1 Bft)
08.07.2010 12:15 24,2 C 18,8 C 12,4 C 30,1 C 30,1 C 5,9 C 48 % 91 % 100 % 1020,8 hPa 0,0 l/m 4,2 km/h (1 Bft) W-SW 247 5 min 4,1 UV-I 12,5 C 30,1 C 6,4 km/h (2 Bft)
08.07.2010 12:20 24,3 C 18,8 C 12,4 C 30,0 C 30,0 C 5,7 C 48 % 91 % 100 % 1020,7 hPa 0,0 l/m 3,7 km/h (1 Bft) SW 225 5 min 3,9 UV-I 12,6 C 30,0 C 6,0 km/h (2 Bft)
08.07.2010 12:25 24,5 C 18,8 C 12,4 C 29,8 C 29,8 C 5,3 C 48 % 91 % 100 % 1020,7 hPa 0,0 l/m 4,0 km/h (1 Bft) W-SW 247 5 min 3,9 UV-I 12,8 C 29,8 C 5,0 km/h (1 Bft)
08.07.2010 12:30 24,5 C 19,0 C 12,4 C 30,0 C 30,0 C 5,5 C 48 % 91 % 100 % 1020,7 hPa 0,0 l/m 4,5 km/h (1 Bft) W-SW 247 5 min 3,9 UV-I 12,8 C 30,0 C 10,3 km/h (2 Bft)
08.07.2010 12:35 24,5 C 19,0 C 12,4 C 29,8 C 29,8 C 5,3 C 47 % 91 % 100 % 1020,7 hPa 0,0 l/m 4,2 km/h (1 Bft) S 180 5 min 3,9 UV-I 12,4 C 29,8 C 7,7 km/h (2 Bft)
08.07.2010 12:40 24,6 C 19,0 C 12,4 C 29,6 C 29,6 C 5,0 C 47 % 91 % 100 % 1020,7 hPa 0,0 l/m 5,3 km/h (1 Bft) S 180 5 min 3,9 UV-I 12,5 C 29,6 C 4,2 km/h (1 Bft)
08.07.2010 12:45 24,7 C 19,0 C 12,4 C 29,7 C 29,7 C 5,0 C 48 % 91 % 100 % 1020,7 hPa 0,0 l/m 4,8 km/h (1 Bft) S 180 5 min 3,9 UV-I 12,9 C 29,7 C 6,3 km/h (2 Bft)
08.07.2010 12:50 24,9 C 19,0 C 12,4 C 29,8 C 29,8 C 4,9 C 46 % 91 % 100 % 1020,7 hPa 0,0 l/m 4,0 km/h (1 Bft) W-SW 247 5 min 3,9 UV-I 12,5 C 29,8 C 5,6 km/h (1 Bft)
08.07.2010 12:55 25,1 C 19,1 C 12,4 C 30,0 C 30,0 C 4,9 C 47 % 91 % 100 % 1020,7 hPa 0,0 l/m 3,5 km/h (1 Bft) W 270 5 min 3,9 UV-I 13,0 C 30,0 C 2,4 km/h (1 Bft)
08.07.2010 13:00 25,3 C 19,0 C 12,4 C 30,3 C 30,3 C 5,0 C 47 % 91 % 100 % 1020,6 hPa 0,0 l/m 2,4 km/h (1 Bft) W-SW 247 5 min 4,2 UV-I 13,2 C 30,3 C 0,0 km/h (0 Bft)
08.07.2010 13:06 25,3 C 19,1 C 12,4 C 30,5 C 30,5 C 5,2 C 46 % 91 % 100 % 1020,6 hPa 0,0 l/m 3,2 km/h (1 Bft) N 0 6 min 4,2 UV-I 12,8 C 30,5 C 7,2 km/h (2 Bft)
08.07.2010 13:10 25,3 C 19,1 C 12,4 C 30,5 C 30,5 C 5,2 C 46 % 91 % 100 % 1020,6 hPa 0,0 l/m 3,2 km/h (1 Bft) S-SW 202 4 min 4,2 UV-I 12,8 C 30,5 C 7,2 km/h (2 Bft)
08.07.2010 13:15 25,3 C 19,1 C 12,4 C 30,3 C 30,3 C 5,0 C 45 % 91 % 100 % 1020,6 hPa 0,0 l/m 3,7 km/h (1 Bft) S 180 5 min 4,2 UV-I 12,5 C 30,3 C 4,0 km/h (1 Bft)
08.07.2010 13:20 25,5 C 19,1 C 12,4 C 30,6 C 30,6 C 5,1 C 45 % 91 % 100 % 1020,2 hPa 0,0 l/m 2,9 km/h (1 Bft) W-SW 247 5 min 4,4 UV-I 12,7 C 30,6 C 3,9 km/h (1 Bft)
08.07.2010 13:25 25,6 C 19,1 C 12,4 C 30,6 C 30,6 C 5,0 C 45 % 91 % 100 % 1020,2 hPa 0,0 l/m 3,4 km/h (1 Bft) O-SO 112 5 min 4,4 UV-I 12,8 C 30,6 C 3,9 km/h (1 Bft)
08.07.2010 13:30 25,7 C 19,1 C 12,4 C 30,8 C 30,8 C 5,1 C 43 % 91 % 100 % 1020,2 hPa 0,0 l/m 3,4 km/h (1 Bft) SW 225 5 min 4,5 UV-I 12,2 C 30,8 C 4,8 km/h (1 Bft)
08.07.2010 13:35 25,7 C 19,1 C 12,4 C 31,0 C 31,0 C 5,3 C 44 % 91 % 100 % 1020,2 hPa 0,0 l/m 3,1 km/h (1 Bft) S 180 5 min 4,5 UV-I 12,5 C 31,0 C 5,3 km/h (1 Bft)
08.07.2010 13:40 25,9 C 19,2 C 12,4 C 30,9 C 30,9 C 5,0 C 44 % 91 % 100 % 1020,0 hPa 0,0 l/m 4,0 km/h (1 Bft) W-SW 247 5 min 4,6 UV-I 12,7 C 30,9 C 3,2 km/h (1 Bft)
08.07.2010 13:45 25,9 C 19,2 C 12,4 C 31,0 C 31,0 C 5,1 C 45 % 91 % 100 % 1020,0 hPa 0,0 l/m 4,5 km/h (1 Bft) S 180 5 min 4,6 UV-I 13,0 C 31,0 C 7,4 km/h (2 Bft)
08.07.2010 13:50 26,1 C 19,2 C 12,4 C 30,8 C 30,8 C 4,7 C 46 % 91 % 100 % 1020,0 hPa 0,0 l/m 4,0 km/h (1 Bft) S-SW 202 5 min 4,5 UV-I 13,6 C 30,8 C 4,0 km/h (1 Bft)
08.07.2010 13:55 26,2 C 19,2 C 12,4 C 30,7 C 30,7 C 4,5 C 46 % 91 % 100 % 1020,0 hPa 0,0 l/m 4,0 km/h (1 Bft) SW 225 5 min 4,5 UV-I 13,6 C 30,7 C 4,8 km/h (1 Bft)
08.07.2010 14:00 26,3 C 19,2 C 12,4 C 30,4 C 30,4 C 4,1 C 46 % 91 % 100 % 1020,2 hPa 0,0 l/m 4,8 km/h (1 Bft) SO 135 5 min 4,5 UV-I 13,7 C 30,4 C 9,0 km/h (2 Bft)
08.07.2010 14:06 26,7 C 19,3 C 12,4 C 30,6 C 30,6 C 3,9 C 43 % 91 % 100 % 1020,2 hPa 0,0 l/m 4,0 km/h (1 Bft) N 0 6 min 4,5 UV-I 13,1 C 30,6 C 2,6 km/h (1 Bft)
08.07.2010 14:10 26,7 C 19,3 C 12,4 C 30,6 C 30,6 C 3,9 C 43 % 91 % 100 % 1020,2 hPa 0,0 l/m 4,0 km/h (1 Bft) W 270 4 min 4,5 UV-I 13,1 C 30,6 C 2,6 km/h (1 Bft)
08.07.2010 14:15 26,7 C 19,3 C 12,4 C 30,9 C 30,9 C 4,2 C 43 % 91 % 100 % 1020,2 hPa 0,0 l/m 3,1 km/h (1 Bft) W-SW 247 5 min 4,5 UV-I 13,1 C 30,9 C 6,8 km/h (2 Bft)
08.07.2010 14:20 26,8 C 19,3 C 12,4 C 31,2 C 31,2 C 4,4 C 45 % 91 % 100 % 1020,2 hPa 0,0 l/m 3,4 km/h (1 Bft) W 270 5 min 4,3 UV-I 13,9 C 31,2 C 5,0 km/h (1 Bft)
08.07.2010 14:25 26,8 C 19,3 C 12,4 C 31,1 C 31,1 C 4,3 C 44 % 91 % 100 % 1020,2 hPa 0,0 l/m 3,5 km/h (1 Bft) S-SO 157 5 min 4,3 UV-I 13,5 C 31,1 C 0,0 km/h (0 Bft)
08.07.2010 14:30 26,8 C 19,4 C 12,4 C 31,1 C 31,1 C 4,3 C 43 % 91 % 100 % 1020,2 hPa 0,0 l/m 3,4 km/h (1 Bft) SW 225 5 min 4,0 UV-I 13,2 C 31,1 C 4,8 km/h (1 Bft)
08.07.2010 14:35 27,0 C 19,4 C 12,4 C 31,0 C 31,0 C 4,0 C 43 % 91 % 100 % 1020,2 hPa 0,0 l/m 4,0 km/h (1 Bft) S 180 5 min 4,0 UV-I 13,3 C 31,0 C 7,6 km/h (2 Bft)
08.07.2010 14:40 27,1 C 19,5 C 12,4 C 31,2 C 31,2 C 4,1 C 43 % 91 % 100 % 1020,1 hPa 0,0 l/m 3,9 km/h (1 Bft) SW 225 5 min 3,9 UV-I 13,4 C 31,2 C 4,8 km/h (1 Bft)
08.07.2010 14:45 27,1 C 19,5 C 12,4 C 31,3 C 31,3 C 4,2 C 42 % 91 % 100 % 1020,1 hPa 0,0 l/m 3,1 km/h (1 Bft) S-SO 157 5 min 3,9 UV-I 13,1 C 31,3 C 1,8 km/h (1 Bft)
08.07.2010 14:50 27,4 C 19,5 C 12,4 C 31,3 C 31,3 C 3,9 C 44 % 91 % 100 % 1020,1 hPa 0,0 l/m 4,3 km/h (1 Bft) W-SW 247 5 min 3,7 UV-I 14,0 C 31,3 C 8,4 km/h (2 Bft)
08.07.2010 14:55 27,5 C 19,6 C 12,4 C 31,0 C 31,0 C 3,5 C 42 % 91 % 92 % 1020,1 hPa 0,0 l/m 5,6 km/h (1 Bft) O-NO 67 5 min 3,7 UV-I 13,4 C 31,0 C 0,0 km/h (0 Bft)
08.07.2010 15:00 27,4 C 19,6 C 12,4 C 30,9 C 30,9 C 3,5 C 41 % 91 % 92 % 1019,9 hPa 0,0 l/m 6,0 km/h (2 Bft) S 180 5 min 3,5 UV-I 13,0 C 30,9 C 6,8 km/h (2 Bft)
08.07.2010 15:06 27,4 C 19,7 C 12,4 C 30,7 C 30,7 C 3,3 C 41 % 91 % 87 % 1019,9 hPa 0,0 l/m 4,0 km/h (1 Bft) N 0 6 min 3,5 UV-I 13,0 C 30,7 C 1,9 km/h (1 Bft)
08.07.2010 15:10 27,4 C 19,7 C 12,4 C 30,7 C 30,7 C 3,3 C 41 % 91 % 87 % 1019,9 hPa 0,0 l/m 4,0 km/h (1 Bft) S 180 4 min 3,5 UV-I 13,0 C 30,7 C 1,9 km/h (1 Bft)
08.07.2010 15:15 27,7 C 19,7 C 12,4 C 31,1 C 31,1 C 3,4 C 41 % 91 % 89 % 1019,9 hPa 0,0 l/m 2,4 km/h (1 Bft) W 270 5 min 3,5 UV-I 13,2 C 31,1 C 3,2 km/h (1 Bft)
08.07.2010 15:20 27,8 C 19,8 C 12,4 C 31,6 C 31,6 C 3,8 C 42 % 91 % 100 % 1019,8 hPa 0,0 l/m 3,1 km/h (1 Bft) W-SW 247 5 min 3,5 UV-I 13,7 C 31,6 C 6,9 km/h (2 Bft)
08.07.2010 15:25 27,8 C 19,8 C 12,4 C 31,3 C 31,3 C 3,5 C 42 % 91 % 92 % 1019,8 hPa 0,0 l/m 4,7 km/h (1 Bft) SO 135 5 min 3,5 UV-I 13,7 C 31,3 C 8,2 km/h (2 Bft)
08.07.2010 15:30 28,0 C 20,0 C 12,4 C 31,6 C 31,6 C 3,6 C 42 % 91 % 95 % 1019,8 hPa 0,0 l/m 4,3 km/h (1 Bft) S 180 5 min 3,6 UV-I 13,9 C 31,6 C 5,5 km/h (1 Bft)
08.07.2010 15:35 28,1 C 20,0 C 12,4 C 31,5 C 31,5 C 3,4 C 41 % 91 % 89 % 1019,8 hPa 0,0 l/m 4,0 km/h (1 Bft) SW 225 5 min 3,6 UV-I 13,6 C 31,5 C 2,9 km/h (1 Bft)
08.07.2010 15:40 27,9 C 20,0 C 12,4 C 31,2 C 31,2 C 3,3 C 41 % 91 % 87 % 1019,6 hPa 0,0 l/m 5,1 km/h (1 Bft) S 180 5 min 3,5 UV-I 13,4 C 31,2 C 4,8 km/h (1 Bft)
08.07.2010 15:45 28,1 C 20,1 C 12,4 C 31,3 C 31,3 C 3,2 C 41 % 91 % 84 % 1019,6 hPa 0,0 l/m 3,9 km/h (1 Bft) N 360 0 min 3,5 UV-I 13,6 C 31,3 C 1,9 km/h (1 Bft)
08.07.2010 15:50 28,2 C 20,2 C 12,4 C 31,8 C 31,8 C 3,6 C 40 % 91 % 95 % 1019,6 hPa 0,0 l/m 2,7 km/h (1 Bft) S 180 5 min 3,5 UV-I 13,3 C 31,8 C 6,1 km/h (2 Bft)
08.07.2010 15:55 28,2 C 20,2 C 12,4 C 32,0 C 32,0 C 3,8 C 41 % 91 % 100 % 1019,6 hPa 0,0 l/m 2,3 km/h (1 Bft) SO 135 5 min 3,5 UV-I 13,7 C 32,0 C 6,6 km/h (2 Bft)
08.07.2010 16:00 28,4 C 20,2 C 12,4 C 32,3 C 32,3 C 3,9 C 41 % 91 % 100 % 1019,8 hPa 0,0 l/m 2,6 km/h (1 Bft) S-SW 202 5 min 3,4 UV-I 13,9 C 32,3 C 2,9 km/h (1 Bft)
08.07.2010 16:06 28,7 C 20,3 C 12,4 C 32,8 C 32,8 C 4,1 C 40 % 91 % 100 % 1019,8 hPa 0,0 l/m 2,3 km/h (1 Bft) N 0 6 min 3,4 UV-I 13,7 C 32,8 C 0,0 km/h (0 Bft)
08.07.2010 16:10 28,7 C 20,3 C 12,4 C 32,8 C 32,8 C 4,1 C 40 % 91 % 100 % 1019,8 hPa 0,0 l/m 2,3 km/h (1 Bft) N-NW 337 4 min 3,4 UV-I 13,7 C 32,8 C 0,0 km/h (0 Bft)
08.07.2010 16:15 28,7 C 20,3 C 12,4 C 33,0 C 33,0 C 4,3 C 40 % 91 % 100 % 1019,8 hPa 0,0 l/m 2,1 km/h (1 Bft) SO 135 5 min 3,4 UV-I 13,7 C 33,0 C 0,0 km/h (0 Bft)
08.07.2010 16:20 28,8 C 20,5 C 12,4 C 33,3 C 33,3 C 4,5 C 40 % 91 % 100 % 1019,3 hPa 0,0 l/m 1,9 km/h (1 Bft) S 180 5 min 3,1 UV-I 13,8 C 33,3 C 4,5 km/h (1 Bft)
08.07.2010 16:25 28,7 C 20,5 C 12,4 C 32,8 C 32,8 C 4,1 C 39 % 91 % 100 % 1019,3 hPa 0,0 l/m 3,7 km/h (1 Bft) S-SO 157 5 min 3,1 UV-I 13,4 C 32,8 C 4,8 km/h (1 Bft)
08.07.2010 16:30 28,7 C 20,6 C 12,4 C 31,9 C 31,9 C 3,2 C 39 % 91 % 84 % 1019,3 hPa 0,0 l/m 4,7 km/h (1 Bft) SO 135 0 min 2,8 UV-I 13,4 C 31,9 C 0,0 km/h (0 Bft)
08.07.2010 16:35 28,7 C 20,6 C 12,4 C 32,1 C 32,1 C 3,4 C 40 % 91 % 89 % 1019,3 hPa 0,0 l/m 2,9 km/h (1 Bft) S 180 5 min 2,8 UV-I 13,7 C 32,1 C 2,6 km/h (1 Bft)
08.07.2010 16:40 28,7 C 20,6 C 12,4 C 32,3 C 32,3 C 3,6 C 40 % 91 % 95 % 1019,3 hPa 0,0 l/m 2,6 km/h (1 Bft) NW 315 5 min 2,6 UV-I 13,7 C 32,3 C 2,4 km/h (1 Bft)
08.07.2010 16:45 28,8 C 20,7 C 12,4 C 32,5 C 32,5 C 3,7 C 40 % 91 % 97 % 1019,3 hPa 0,0 l/m 2,9 km/h (1 Bft) NW 315 5 min 2,6 UV-I 13,8 C 32,5 C 0,0 km/h (0 Bft)
08.07.2010 16:50 29,0 C 20,7 C 12,4 C 32,9 C 32,9 C 3,9 C 39 % 91 % 100 % 1019,3 hPa 0,0 l/m 1,8 km/h (1 Bft) W-NW 292 5 min 2,4 UV-I 13,6 C 32,9 C 0,0 km/h (0 Bft)
08.07.2010 16:55 29,1 C 20,7 C 12,4 C 33,3 C 33,3 C 4,2 C 40 % 91 % 100 % 1019,3 hPa 0,0 l/m 1,4 km/h (1 Bft) S-SO 157 5 min 2,4 UV-I 14,1 C 33,3 C 3,2 km/h (1 Bft)
08.07.2010 17:00 29,0 C 20,8 C 12,4 C 33,2 C 33,2 C 4,2 C 39 % 91 % 100 % 1019,5 hPa 0,0 l/m 2,4 km/h (1 Bft) O-SO 112 5 min 2,2 UV-I 13,6 C 33,2 C 3,5 km/h (1 Bft)
08.07.2010 17:06 29,3 C 20,8 C 12,4 C 32,5 C 32,5 C 3,2 C 39 % 91 % 84 % 1019,5 hPa 0,0 l/m 3,4 km/h (1 Bft) N 0 0 min 1,9 UV-I 13,9 C 32,5 C 2,9 km/h (1 Bft)
08.07.2010 17:10 29,3 C 20,8 C 12,4 C 32,5 C 32,5 C 3,2 C 39 % 91 % 84 % 1019,5 hPa 0,0 l/m 3,4 km/h (1 Bft) S 180 0 min 1,9 UV-I 13,9 C 32,5 C 2,9 km/h (1 Bft)
08.07.2010 17:15 29,3 C 20,8 C 12,4 C 32,5 C 32,5 C 3,2 C 39 % 91 % 84 % 1019,5 hPa 0,0 l/m 3,5 km/h (1 Bft) NW 315 0 min 1,9 UV-I 13,9 C 32,5 C 2,6 km/h (1 Bft)
08.07.2010 17:20 29,3 C 20,8 C 12,4 C 32,8 C 32,8 C 3,5 C 39 % 91 % 92 % 1019,4 hPa 0,0 l/m 2,3 km/h (1 Bft) W-SW 247 5 min 1,7 UV-I 13,9 C 32,8 C 2,6 km/h (1 Bft)
08.07.2010 17:25 29,3 C 20,9 C 12,4 C 32,8 C 32,8 C 3,5 C 39 % 91 % 92 % 1019,4 hPa 0,0 l/m 2,3 km/h (1 Bft) O 90 5 min 1,7 UV-I 13,9 C 32,8 C 0,0 km/h (0 Bft)
08.07.2010 17:30 29,5 C 20,9 C 12,4 C 33,0 C 33,0 C 3,5 C 40 % 91 % 92 % 1019,4 hPa 0,0 l/m 2,1 km/h (1 Bft) S-SO 157 5 min 1,5 UV-I 14,5 C 33,0 C 4,3 km/h (1 Bft)
08.07.2010 17:35 29,7 C 20,9 C 12,4 C 33,2 C 33,2 C 3,5 C 39 % 91 % 92 % 1019,4 hPa 0,0 l/m 1,6 km/h (1 Bft) O 90 5 min 1,5 UV-I 14,2 C 33,2 C 0,0 km/h (0 Bft)
08.07.2010 17:40 29,8 C 20,9 C 12,4 C 33,2 C 33,2 C 3,4 C 39 % 91 % 89 % 1019,4 hPa 0,0 l/m 1,9 km/h (1 Bft) NW 315 5 min 1,3 UV-I 14,3 C 33,2 C 2,4 km/h (1 Bft)
08.07.2010 17:45 29,7 C 20,9 C 12,4 C 33,0 C 33,0 C 3,3 C 39 % 91 % 87 % 1019,4 hPa 0,0 l/m 2,6 km/h (1 Bft) W-SW 247 5 min 1,3 UV-I 14,2 C 33,0 C 4,0 km/h (1 Bft)
08.07.2010 17:50 29,7 C 21,0 C 12,4 C 32,8 C 32,8 C 3,1 C 39 % 91 % 82 % 1019,4 hPa 0,0 l/m 3,2 km/h (1 Bft) NW 315 0 min 1,1 UV-I 14,2 C 32,8 C 3,4 km/h (1 Bft)
08.07.2010 17:55 29,7 C 21,0 C 12,4 C 32,9 C 32,9 C 3,2 C 39 % 91 % 84 % 1019,4 hPa 0,0 l/m 2,4 km/h (1 Bft) W 270 0 min 1,1 UV-I 14,2 C 32,9 C 1,8 km/h (1 Bft)
08.07.2010 18:00 29,6 C 21,0 C 12,4 C 32,8 C 32,8 C 3,2 C 38 % 91 % 84 % 1019,3 hPa 0,0 l/m 1,1 km/h (1 Bft) O-NO 67 0 min 0,9 UV-I 13,8 C 32,8 C 0,0 km/h (0 Bft)
08.07.2010 18:06 29,8 C 21,0 C 12,4 C 33,2 C 33,2 C 3,4 C 39 % 91 % 89 % 1019,3 hPa 0,0 l/m 1,3 km/h (1 Bft) N 0 6 min 0,8 UV-I 14,3 C 33,2 C 0,0 km/h (0 Bft)
08.07.2010 18:10 29,8 C 21,0 C 12,4 C 33,2 C 33,2 C 3,4 C 39 % 91 % 89 % 1019,3 hPa 0,0 l/m 1,3 km/h (1 Bft) W 270 4 min 0,8 UV-I 14,3 C 33,2 C 0,0 km/h (0 Bft)
08.07.2010 18:15 29,9 C 21,0 C 12,4 C 33,4 C 33,4 C 3,5 C 39 % 91 % 92 % 1019,3 hPa 0,0 l/m 1,4 km/h (1 Bft) SW 225 5 min 0,8 UV-I 14,4 C 33,4 C 3,1 km/h (1 Bft)
08.07.2010 18:20 29,9 C 21,0 C 12,4 C 33,4 C 33,4 C 3,5 C 38 % 91 % 92 % 1019,0 hPa 0,0 l/m 1,1 km/h (1 Bft) NO 45 5 min 0,7 UV-I 14,0 C 33,4 C 1,8 km/h (1 Bft)
08.07.2010 18:25 29,7 C 21,0 C 12,4 C 33,1 C 33,1 C 3,4 C 38 % 91 % 89 % 1019,0 hPa 0,0 l/m 1,3 km/h (1 Bft) NO 45 5 min 0,7 UV-I 13,8 C 33,1 C 1,6 km/h (1 Bft)
08.07.2010 18:30 29,4 C 21,2 C 12,4 C 32,9 C 32,9 C 3,5 C 39 % 91 % 92 % 1019,0 hPa 0,0 l/m 0,8 km/h (0 Bft) O-NO 67 5 min 0,5 UV-I 14,0 C 32,9 C 1,6 km/h (1 Bft)
08.07.2010 18:35 29,4 C 21,2 C 12,4 C 33,0 C 33,0 C 3,6 C 40 % 91 % 95 % 1019,0 hPa 0,0 l/m 0,5 km/h (0 Bft) SW 225 5 min 0,5 UV-I 14,4 C 33,0 C 4,2 km/h (1 Bft)
08.07.2010 18:40 29,7 C 21,2 C 12,4 C 32,7 C 32,7 C 3,0 C 39 % 91 % 79 % 1019,1 hPa 0,0 l/m 2,4 km/h (1 Bft) S-SW 202 0 min 0,4 UV-I 14,2 C 32,7 C 5,1 km/h (1 Bft)
08.07.2010 18:45 29,9 C 21,2 C 12,4 C 32,4 C 32,4 C 2,5 C 39 % 91 % 66 % 1019,1 hPa 0,0 l/m 3,5 km/h (1 Bft) S 180 0 min 0,4 UV-I 14,4 C 32,4 C 5,6 km/h (1 Bft)
08.07.2010 18:50 29,9 C 21,1 C 12,4 C 32,1 C 32,1 C 2,2 C 39 % 91 % 58 % 1019,1 hPa 0,0 l/m 3,2 km/h (1 Bft) W-SW 247 0 min 0,3 UV-I 14,4 C 32,1 C 3,4 km/h (1 Bft)
08.07.2010 18:55 30,0 C 21,1 C 12,4 C 32,2 C 32,2 C 2,2 C 39 % 91 % 58 % 1019,1 hPa 0,0 l/m 2,7 km/h (1 Bft) S 180 0 min 0,3 UV-I 14,5 C 32,2 C 3,1 km/h (1 Bft)
08.07.2010 19:00 30,1 C 21,1 C 12,4 C 32,2 C 32,2 C 2,1 C 39 % 91 % 55 % 1019,1 hPa 0,0 l/m 2,3 km/h (1 Bft) SW 225 0 min 0,2 UV-I 14,6 C 32,2 C 4,3 km/h (1 Bft)
08.07.2010 19:06 30,2 C 21,2 C 12,4 C 31,7 C 31,7 C 1,5 C 39 % 91 % 39 % 1019,1 hPa 0,0 l/m 2,7 km/h (1 Bft) N 0 0 min 0,2 UV-I 14,7 C 31,7 C 1,9 km/h (1 Bft)
08.07.2010 19:10 30,2 C 21,2 C 12,4 C 31,7 C 31,7 C 1,5 C 39 % 91 % 39 % 1019,1 hPa 0,0 l/m 2,7 km/h (1 Bft) S 180 0 min 0,2 UV-I 14,7 C 31,7 C 1,9 km/h (1 Bft)
08.07.2010 19:15 30,1 C 21,2 C 12,4 C 31,8 C 31,8 C 1,7 C 40 % 91 % 45 % 1019,1 hPa 0,0 l/m 2,1 km/h (1 Bft) O-NO 67 0 min 0,2 UV-I 15,0 C 31,8 C 2,3 km/h (1 Bft)
08.07.2010 19:20 29,6 C 21,2 C 12,4 C 31,5 C 31,5 C 1,9 C 41 % 91 % 50 % 1018,8 hPa 0,0 l/m 1,3 km/h (1 Bft) N 360 0 min 0,1 UV-I 14,9 C 31,5 C 0,0 km/h (0 Bft)
08.07.2010 19:25 29,7 C 21,2 C 12,4 C 31,7 C 31,7 C 2,0 C 41 % 91 % 53 % 1018,8 hPa 0,0 l/m 0,6 km/h (0 Bft) O-NO 67 0 min 0,1 UV-I 15,0 C 31,7 C 0,0 km/h (0 Bft)
08.07.2010 19:30 29,5 C 21,2 C 12,4 C 31,8 C 31,8 C 2,3 C 39 % 91 % 61 % 1018,8 hPa 0,0 l/m 0,2 km/h (0 Bft) O-NO 67 0 min 0,1 UV-I 14,1 C 31,8 C 1,9 km/h (1 Bft)
08.07.2010 19:35 29,3 C 21,2 C 12,4 C 31,5 C 31,5 C 2,2 C 40 % 91 % 58 % 1018,8 hPa 0,0 l/m 0,6 km/h (0 Bft) O-NO 67 0 min 0,1 UV-I 14,3 C 31,5 C 0,0 km/h (0 Bft)
08.07.2010 19:40 29,1 C 21,2 C 12,4 C 30,8 C 30,8 C 1,7 C 40 % 91 % 45 % 1019,0 hPa 0,0 l/m 1,9 km/h (1 Bft) O-NO 67 0 min 0,0 UV-I 14,1 C 30,8 C 3,4 km/h (1 Bft)
08.07.2010 19:45 28,9 C 21,2 C 12,4 C 30,4 C 30,4 C 1,5 C 40 % 91 % 39 % 1019,0 hPa 0,0 l/m 2,3 km/h (1 Bft) O-NO 67 0 min 0,0 UV-I 13,9 C 30,4 C 3,1 km/h (1 Bft)
08.07.2010 19:50 28,7 C 21,2 C 12,4 C 30,1 C 30,1 C 1,4 C 40 % 91 % 37 % 1019,0 hPa 0,0 l/m 2,4 km/h (1 Bft) O-NO 67 0 min 0,0 UV-I 13,7 C 30,1 C 3,2 km/h (1 Bft)
08.07.2010 19:55 28,6 C 21,2 C 12,4 C 29,9 C 29,9 C 1,3 C 41 % 91 % 34 % 1019,0 hPa 0,0 l/m 2,4 km/h (1 Bft) NO 45 0 min 0,0 UV-I 14,0 C 29,9 C 2,4 km/h (1 Bft)
08.07.2010 20:00 28,3 C 21,3 C 12,4 C 29,3 C 29,3 C 1,0 C 43 % 91 % 26 % 1018,9 hPa 0,0 l/m 2,1 km/h (1 Bft) NO 45 0 min 0,0 UV-I 14,5 C 29,3 C 2,1 km/h (1 Bft)
08.07.2010 20:07 27,7 C 21,3 C 12,4 C 28,1 C 28,1 C 0,4 C 45 % 91 % 11 % 1018,9 hPa 0,0 l/m 0,3 km/h (0 Bft) N 0 0 min 0,0 UV-I 14,7 C 28,1 C 0,0 km/h (0 Bft)
08.07.2010 20:10 27,7 C 21,3 C 12,4 C 28,1 C 28,1 C 0,4 C 45 % 91 % 11 % 1018,9 hPa 0,0 l/m 0,3 km/h (0 Bft) NO 45 0 min 0,0 UV-I 14,7 C 28,1 C 0,0 km/h (0 Bft)
08.07.2010 20:15 27,5 C 21,3 C 12,4 C 27,6 C 27,6 C 0,1 C 45 % 91 % 3 % 1018,9 hPa 0,0 l/m 0,0 km/h (0 Bft) NO 45 0 min 0,0 UV-I 14,5 C 27,6 C 0,0 km/h (0 Bft)
08.07.2010 20:20 27,2 C 21,3 C 12,4 C 27,0 C 26,6 C 0,0 C 47 % 91 % 0 % 1018,8 hPa 0,0 l/m 0,0 km/h (0 Bft) NO 45 0 min 0,0 UV-I 14,9 C 26,6 C 0,0 km/h (0 Bft)
08.07.2010 20:25 27,1 C 21,3 C 12,4 C 26,6 C 25,7 C 0,0 C 48 % 91 % 0 % 1018,8 hPa 0,0 l/m 0,0 km/h (0 Bft) NO 45 0 min 0,0 UV-I 15,1 C 25,7 C 0,0 km/h (0 Bft)
08.07.2010 20:30 26,8 C 21,3 C 12,4 C 26,2 C 24,9 C 0,0 C 51 % 91 % 0 % 1018,8 hPa 0,0 l/m 0,0 km/h (0 Bft) NO 45 0 min 0,0 UV-I 15,8 C 24,9 C 0,0 km/h (0 Bft)
08.07.2010 20:35 26,6 C 21,3 C 12,4 C 25,9 C 24,4 C 0,0 C 53 % 91 % 0 % 1018,8 hPa 0,0 l/m 0,0 km/h (0 Bft) NO 45 0 min 0,0 UV-I 16,2 C 24,4 C 0,0 km/h (0 Bft)
08.07.2010 20:40 26,7 C 21,3 C 12,4 C 25,7 C 23,7 C 0,0 C 54 % 91 % 0 % 1018,7 hPa 0,0 l/m 0,0 km/h (0 Bft) NO 45 0 min 0,0 UV-I 16,6 C 23,7 C 0,0 km/h (0 Bft)
08.07.2010 20:45 26,4 C 21,3 C 12,4 C 25,4 C 23,3 C 0,0 C 54 % 91 % 0 % 1018,7 hPa 0,0 l/m 0,0 km/h (0 Bft) NO 45 0 min 0,0 UV-I 16,3 C 23,3 C 0,0 km/h (0 Bft)
08.07.2010 20:50 26,2 C 21,3 C 12,4 C 25,1 C 22,8 C 0,0 C 56 % 91 % 0 % 1018,7 hPa 0,0 l/m 0,0 km/h (0 Bft) NO 45 0 min 0,0 UV-I 16,7 C 22,8 C 0,0 km/h (0 Bft)
08.07.2010 20:55 26,1 C 21,3 C 12,4 C 24,9 C 22,4 C 0,0 C 58 % 91 % 0 % 1018,7 hPa 0,0 l/m 0,0 km/h (0 Bft) NO 45 0 min 0,0 UV-I 17,2 C 22,4 C 0,0 km/h (0 Bft)
08.07.2010 21:00 26,0 C 21,3 C 12,4 C 24,7 C 22,1 C 0,0 C 58 % 91 % 0 % 1018,8 hPa 0,0 l/m 0,0 km/h (0 Bft) SW 225 0 min 0,0 UV-I 17,1 C 22,1 C 0,0 km/h (0 Bft)
08.07.2010 21:06 25,3 C 21,3 C 12,4 C 24,0 C 21,4 C 0,0 C 61 % 91 % 0 % 1018,8 hPa 0,0 l/m 0,0 km/h (0 Bft) N 0 0 min 0,0 UV-I 17,2 C 21,4 C 0,0 km/h (0 Bft)
08.07.2010 21:10 25,3 C 21,3 C 12,4 C 24,0 C 21,4 C 0,0 C 61 % 91 % 0 % 1018,8 hPa 0,0 l/m 0,0 km/h (0 Bft) SW 225 0 min 0,0 UV-I 17,2 C 21,4 C 0,0 km/h (0 Bft)
08.07.2010 21:15 25,3 C 21,4 C 12,4 C 23,9 C 21,1 C 0,0 C 61 % 91 % 0 % 1018,8 hPa 0,0 l/m 0,3 km/h (0 Bft) SW 225 0 min 0,0 UV-I 17,2 C 21,1 C 1,9 km/h (1 Bft)
08.07.2010 21:20 25,2 C 21,4 C 12,4 C 23,7 C 20,8 C 0,0 C 61 % 91 % 0 % 1018,8 hPa 0,0 l/m 0,3 km/h (0 Bft) W-SW 247 0 min 0,0 UV-I 17,1 C 20,8 C 0,0 km/h (0 Bft)
08.07.2010 21:25 24,7 C 21,4 C 21,7 C 23,3 C 20,6 C 0,0 C 61 % 72 % 0 % 1018,8 hPa 0,0 l/m 0,2 km/h (0 Bft) W-SW 247 0 min 0,0 UV-I 16,7 C 20,6 C 0,0 km/h (0 Bft)
08.07.2010 21:30 24,4 C 21,4 C 21,5 C 23,0 C 20,1 C 0,0 C 62 % 72 % 0 % 1018,8 hPa 0,0 l/m 0,0 km/h (0 Bft) W-SW 247 0 min 0,0 UV-I 16,6 C 20,1 C 0,0 km/h (0 Bft)
08.07.2010 21:35 24,3 C 21,4 C 21,2 C 22,8 C 19,8 C 0,0 C 62 % 72 % 0 % 1018,8 hPa 0,0 l/m 0,0 km/h (0 Bft) W-SW 247 0 min 0,0 UV-I 16,5 C 19,8 C 0,0 km/h (0 Bft)
08.07.2010 21:40 24,1 C 21,4 C 21,1 C 22,6 C 19,5 C 0,0 C 63 % 73 % 0 % 1018,6 hPa 0,0 l/m 0,0 km/h (0 Bft) W-SW 247 0 min 0,0 UV-I 16,6 C 19,5 C 0,0 km/h (0 Bft)
08.07.2010 21:45 24,0 C 21,4 C 21,0 C 22,4 C 19,3 C 0,0 C 64 % 74 % 0 % 1018,6 hPa 0,0 l/m 0,0 km/h (0 Bft) W-SW 247 0 min 0,0 UV-I 16,8 C 19,3 C 0,0 km/h (0 Bft)
08.07.2010 21:50 23,9 C 21,4 C 20,9 C 22,3 C 19,0 C 0,0 C 65 % 75 % 0 % 1018,6 hPa 0,0 l/m 0,0 km/h (0 Bft) W-SW 247 0 min 0,0 UV-I 16,9 C 19,0 C 0,0 km/h (0 Bft)
08.07.2010 21:55 23,7 C 21,4 C 20,8 C 22,1 C 18,8 C 0,0 C 66 % 75 % 0 % 1018,6 hPa 0,0 l/m 0,0 km/h (0 Bft) W-SW 247 0 min 0,0 UV-I 17,0 C 18,8 C 0,0 km/h (0 Bft)
08.07.2010 22:00 23,6 C 21,4 C 20,7 C 21,9 C 18,6 C 0,0 C 66 % 77 % 0 % 1018,9 hPa 0,0 l/m 0,2 km/h (0 Bft) W-SW 247 0 min 0,1 UV-I 16,9 C 18,6 C 1,6 km/h (1 Bft)
08.07.2010 22:07 23,5 C 21,4 C 20,3 C 21,7 C 18,2 C 0,0 C 66 % 78 % 0 % 1018,9 hPa 0,0 l/m 0,2 km/h (0 Bft) W-SW 247 0 min 0,1 UV-I 16,8 C 18,2 C 0,0 km/h (0 Bft)
08.07.2010 22:10 23,5 C 21,4 C 20,3 C 21,7 C 18,2 C 0,0 C 66 % 78 % 0 % 1018,9 hPa 0,0 l/m 0,2 km/h (0 Bft) W-SW 247 0 min 0,1 UV-I 16,8 C 18,2 C 0,0 km/h (0 Bft)
08.07.2010 22:15 23,1 C 21,4 C 20,0 C 21,4 C 18,1 C 0,0 C 66 % 77 % 0 % 1018,9 hPa 0,0 l/m 0,0 km/h (0 Bft) W-SW 247 0 min 0,1 UV-I 16,4 C 18,1 C 0,0 km/h (0 Bft)
08.07.2010 22:20 22,7 C 21,5 C 19,7 C 21,1 C 17,9 C 0,0 C 67 % 78 % 0 % 1018,9 hPa 0,0 l/m 0,0 km/h (0 Bft) N 360 0 min 0,1 UV-I 16,2 C 17,9 C 0,0 km/h (0 Bft)
08.07.2010 22:25 22,4 C 21,5 C 19,7 C 20,9 C 17,8 C 0,0 C 68 % 78 % 0 % 1018,9 hPa 0,0 l/m 0,0 km/h (0 Bft) N 360 0 min 0,1 UV-I 16,2 C 17,8 C 0,0 km/h (0 Bft)
08.07.2010 22:30 22,4 C 21,4 C 19,7 C 20,8 C 17,6 C 0,0 C 69 % 79 % 0 % 1018,9 hPa 0,0 l/m 0,0 km/h (0 Bft) W-SW 247 0 min 0,1 UV-I 16,4 C 17,6 C 0,0 km/h (0 Bft)
08.07.2010 22:35 22,5 C 21,4 C 19,7 C 20,8 C 17,5 C 0,0 C 70 % 80 % 0 % 1018,9 hPa 0,0 l/m 0,0 km/h (0 Bft) S-SW 202 0 min 0,1 UV-I 16,7 C 17,5 C 1,6 km/h (1 Bft)
08.07.2010 22:40 22,4 C 21,4 C 19,7 C 20,7 C 17,3 C 0,0 C 69 % 80 % 0 % 1018,8 hPa 0,0 l/m 0,0 km/h (0 Bft) S-SW 202 0 min 0,3 UV-I 16,4 C 17,3 C 0,0 km/h (0 Bft)
08.07.2010 22:45 22,3 C 21,5 C 19,7 C 20,6 C 17,2 C 0,0 C 69 % 80 % 0 % 1018,8 hPa 0,0 l/m 0,0 km/h (0 Bft) S-SW 202 0 min 0,3 UV-I 16,3 C 17,2 C 0,0 km/h (0 Bft)
08.07.2010 22:50 21,7 C 21,5 C 19,7 C 20,1 C 17,0 C 0,0 C 70 % 80 % 0 % 1018,8 hPa 0,0 l/m 0,0 km/h (0 Bft) S-SW 202 0 min 0,1 UV-I 16,0 C 17,0 C 0,0 km/h (0 Bft)
08.07.2010 22:55 21,7 C 21,5 C 19,7 C 20,1 C 17,0 C 0,0 C 70 % 80 % 0 % 1018,8 hPa 0,0 l/m 0,0 km/h (0 Bft) S-SW 202 0 min 0,1 UV-I 16,0 C 17,0 C 0,0 km/h (0 Bft)
08.07.2010 23:00 21,6 C 21,4 C 19,7 C 20,0 C 16,8 C 0,0 C 71 % 80 % 0 % 1018,7 hPa 0,0 l/m 0,0 km/h (0 Bft) S-SW 202 0 min 0,1 UV-I 16,1 C 16,8 C 0,0 km/h (0 Bft)
08.07.2010 23:07 21,5 C 21,4 C 19,7 C 19,9 C 16,7 C 0,0 C 71 % 80 % 0 % 1018,7 hPa 0,0 l/m 0,3 km/h (0 Bft) S-SW 202 0 min 0,3 UV-I 16,0 C 16,7 C 0,0 km/h (0 Bft)
08.07.2010 23:10 21,5 C 21,4 C 19,7 C 19,9 C 16,7 C 0,0 C 71 % 80 % 0 % 1018,7 hPa 0,0 l/m 0,3 km/h (0 Bft) S-SW 202 0 min 0,3 UV-I 16,0 C 16,7 C 0,0 km/h (0 Bft)
08.07.2010 23:15 21,5 C 21,4 C 19,7 C 19,9 C 16,6 C 0,0 C 71 % 80 % 0 % 1018,7 hPa 0,0 l/m 0,2 km/h (0 Bft) S-SW 202 0 min 0,3 UV-I 16,0 C 16,6 C 0,0 km/h (0 Bft)
08.07.2010 23:20 21,3 C 21,4 C 19,7 C 19,7 C 16,5 C 0,0 C 72 % 80 % 0 % 1018,7 hPa 0,0 l/m 0,0 km/h (0 Bft) S-SW 202 0 min 0,5 UV-I 16,0 C 16,5 C 0,0 km/h (0 Bft)
08.07.2010 23:25 21,3 C 21,4 C 19,7 C 19,7 C 16,4 C 0,0 C 72 % 80 % 0 % 1018,7 hPa 0,0 l/m 0,0 km/h (0 Bft) S-SW 202 0 min 0,5 UV-I 16,0 C 16,4 C 0,0 km/h (0 Bft)
08.07.2010 23:30 21,0 C 21,4 C 19,7 C 19,4 C 16,3 C 0,0 C 72 % 80 % 0 % 1018,7 hPa 0,0 l/m 0,0 km/h (0 Bft) S-SW 202 0 min 0,5 UV-I 15,8 C 16,3 C 0,0 km/h (0 Bft)
08.07.2010 23:35 20,9 C 21,4 C 18,1 C 19,4 C 16,3 C 0,0 C 73 % 83 % 0 % 1018,7 hPa 0,0 l/m 0,0 km/h (0 Bft) S-SW 202 0 min 0,5 UV-I 15,9 C 16,3 C 0,0 km/h (0 Bft)
08.07.2010 23:40 20,6 C 21,4 C 18,1 C 19,1 C 16,1 C 0,0 C 72 % 83 % 0 % 1018,8 hPa 0,0 l/m 0,0 km/h (0 Bft) S-SW 202 0 min 0,4 UV-I 15,4 C 16,1 C 0,0 km/h (0 Bft)
08.07.2010 23:45 20,7 C 21,4 C 18,1 C 19,1 C 16,0 C 0,0 C 73 % 83 % 0 % 1018,8 hPa 0,0 l/m 0,0 km/h (0 Bft) S-SW 202 0 min 0,4 UV-I 15,7 C 16,0 C 0,0 km/h (0 Bft)
08.07.2010 23:50 20,5 C 21,4 C 17,9 C 19,0 C 16,0 C 0,0 C 73 % 83 % 0 % 1018,8 hPa 0,0 l/m 0,0 km/h (0 Bft) S-SW 202 0 min 0,4 UV-I 15,5 C 16,0 C 0,0 km/h (0 Bft)
08.07.2010 23:55 20,4 C 21,4 C 17,8 C 18,9 C 15,9 C 0,0 C 73 % 83 % 0 % 1018,8 hPa 0,0 l/m 0,0 km/h (0 Bft) S-SW 202 0 min 0,4 UV-I 15,4 C 15,9 C 0,0 km/h (0 Bft)
_ Min-Zeit 05:25 09:30 05:30 05:25 05:06 00:00 18:00 21:25 00:00 21:40 - 00:00 - - - 01:40 05:25 05:06 00:00
Minimum _ 13,7 C 18,6 C 11,7 C 12,5 C 10,2 C 0,0 C 38 % 72 % 0 % 1018,6 hPa - 0,0 km/h (0 Bft) - - - 0,0 UV-I 10,5 C 10,2 C 0,0 km/h (0 Bft)
_ Max-Zeit 19:06 22:20 21:25 18:15 18:15 09:50 04:35 04:35 07:40 00:00 00:00 15:00 - - 08:06 13:40 21:06 18:15 11:40
Maximum _ 30,2 C 21,5 C 21,7 C 33,4 C 33,4 C 9,3 C 83 % 91 % 100 % 1021,9 hPa 0,0 l/m 6,0 km/h
S (2 Bft)
- - 6 min 4,6 UV-I 17,2 C 33,4 C 12,1 km/h
SW (2 Bft)
Durchschnitt _ 21,7 C 19,9 C 13,2 C 23,6 C 22,4 C 2,5 C 61 % 89 % 48 % 1020,3 hPa #0,0 l/m 1,4 km/h (1 Bft) W-SW - #10:15 h 1,7 UV-I 13,3 C 22,4 C 1,7 km/h (1 Bft)
2010 www.wetterstation-wechselburg.de